TimePST,TemperatureF,Dew PointF,Humidity,Sea Level PressureIn,VisibilityMPH,Wind Direction,Wind SpeedMPH,Gust SpeedMPH,PrecipitationIn,Events,Conditions,WindDirDegrees,DateUTC
12:12 AM,33.8,33.8,100,29.86,5.0,Calm,Calm,-,N/A,,Overcast,0,2012-11-10 08:12:00
12:21 AM,33.8,33.8,100,29.86,7.0,Calm,Calm,-,N/A,,Overcast,0,2012-11-10 08:21:00
12:28 AM,33.8,33.8,100,29.86,9.0,Calm,Calm,-,N/A,,Overcast,0,2012-11-10 08:28:00
12:56 AM,34.0,33.1,96,29.90,8.0,Calm,Calm,-,N/A,,Overcast,0,2012-11-10 08:56:00
1:14 AM,35.6,32.0,87,29.87,8.0,Calm,Calm,-,N/A,,Overcast,0,2012-11-10 09:14:00
1:56 AM,34.0,32.0,92,29.92,10.0,West,4.6,-,N/A,,Overcast,260,2012-11-10 09:56:00
2:18 AM,33.8,30.2,87,29.89,10.0,West,6.9,-,N/A,,Mostly Cloudy,260,2012-11-10 10:18:00
2:56 AM,33.1,28.9,85,29.92,10.0,West,5.8,-,N/A,,Clear,270,2012-11-10 10:56:00
3:56 AM,33.1,28.0,82,29.94,10.0,West,6.9,-,N/A,,Overcast,270,2012-11-10 11:56:00
4:56 AM,32.0,27.0,82,29.96,10.0,West,8.1,-,N/A,,Clear,270,2012-11-10 12:56:00
5:56 AM,32.0,27.0,82,29.97,10.0,West,8.1,-,N/A,,Clear,260,2012-11-10 13:56:00
6:56 AM,30.9,27.0,85,29.99,10.0,Calm,Calm,-,N/A,,Clear,0,2012-11-10 14:56:00
7:32 AM,32.0,28.4,87,29.96,10.0,SSW,4.6,-,N/A,,Mostly Cloudy,210,2012-11-10 15:32:00
7:56 AM,32.0,27.0,82,30.01,10.0,SSW,5.8,-,N/A,,Mostly Cloudy,210,2012-11-10 15:56:00
8:05 AM,32.0,26.6,80,29.97,10.0,SSW,5.8,-,N/A,,Scattered Clouds,210,2012-11-10 16:05:00
8:56 AM,34.0,28.0,79,30.02,10.0,South,3.5,-,N/A,,Mostly Cloudy,190,2012-11-10 16:56:00
9:56 AM,36.0,28.0,73,30.04,10.0,Calm,Calm,-,N/A,,Mostly Cloudy,0,2012-11-10 17:56:00
10:56 AM,37.9,28.9,70,30.04,10.0,NW,6.9,-,N/A,,Partly Cloudy,310,2012-11-10 18:56:00
11:56 AM,39.9,28.0,63,30.04,10.0,WNW,9.2,-,N/A,,Clear,290,2012-11-10 19:56:00
12:56 PM,37.9,28.0,68,30.06,10.0,NW,10.4,-,N/A,,Mostly Cloudy,310,2012-11-10 20:56:00
1:56 PM,37.9,27.0,65,30.08,10.0,NW,10.4,-,N/A,,Overcast,320,2012-11-10 21:56:00
2:56 PM,37.9,26.1,62,30.11,10.0,NW,9.2,-,N/A,,Overcast,320,2012-11-10 22:56:00
3:56 PM,37.0,25.0,62,30.13,10.0,NW,5.8,-,N/A,,Overcast,310,2012-11-10 23:56:00
4:56 PM,35.1,25.0,67,30.16,10.0,West,4.6,-,N/A,,Overcast,280,2012-11-11 00:56:00
5:56 PM,34.0,25.0,70,30.18,10.0,WSW,4.6,-,N/A,,Partly Cloudy,240,2012-11-11 01:56:00
6:56 PM,34.0,26.1,73,30.19,10.0,West,3.5,-,N/A,,Overcast,280,2012-11-11 02:56:00
7:56 PM,32.0,26.1,79,30.19,10.0,SW,3.5,-,N/A,,Clear,230,2012-11-11 03:56:00
8:56 PM,33.1,26.1,75,30.21,10.0,SW,3.5,-,N/A,,Clear,230,2012-11-11 04:56:00
9:56 PM,30.9,25.0,79,30.22,10.0,South,5.8,-,N/A,,Clear,170,2012-11-11 05:56:00
10:56 PM,30.9,25.0,79,30.23,10.0,South,5.8,-,N/A,,Scattered Clouds,170,2012-11-11 06:56:00
11:56 PM,30.9,24.1,76,30.25,10.0,South,3.5,-,N/A,,Overcast,180,2012-11-11 07:56:00